GW0378 Weather Reports


time (UTC)temp
F
wind
direction
speed
knots
gust
knots
rain 1hr
in
rain 24hr
in
rain mn
in
humidity
%
barometer
mb
20260508004507 73 268 4.3 8.7 0.00 0.00 0.00 31 1012.6
20260508004004 71 279 7.0 9.6 0.00 0.00 0.00 31 1012.8
20260508003500 72 255 2.6 7.8 0.00 0.00 0.00 32 1012.7
20260508002958 72 275 3.5 7.8 0.00 0.00 0.00 32 1012.8
20260508002454 72 268 11.3 11.3 0.00 0.00 0.00 31 1012.8
20260508001950 73 315 3.5 6.1 0.00 0.00 0.00 32 1012.8
20260508001446 72 284 2.6 8.7 0.00 0.00 0.00 33 1012.8
20260508000943 73 259 2.6 8.7 0.00 0.00 0.00 33 1012.6
20260508000439 72 287 4.3 7.8 0.00 0.00 0.00 33 1012.9
20260507235936 73 312 3.5 8.7 0.00 0.00 0.00 33 1012.4
20260507235433 71 291 2.6 7.8 0.00 0.00 0.00 34 1012.7
20260507234931 73 291 2.6 7.8 0.00 0.00 0.00 34 1012.8
20260507234427 70 340 0.0 3.5 0.00 0.00 0.00 35 1012.8
20260507233923 70 353 3.5 4.3 0.00 0.00 0.00 36 1012.8
20260507233420 69 20 0.9 3.5 0.00 0.00 0.00 35 1013.0
20260507232919 69 348 0.0 3.5 0.00 0.00 0.00 37 1012.8
20260507232415 69 289 0.0 5.2 0.00 0.00 0.00 36 1012.9
20260507231912 69 275 3.5 6.1 0.00 0.00 0.00 36 1012.9
20260507231409 71 343 2.6 6.1 0.00 0.00 0.00 34 1012.9
20260507230905 70 328 3.5 6.1 0.00 0.00 0.00 34 1012.7
20260507230403 71 286 1.7 7.8 0.00 0.00 0.00 33 1012.8
20260507225903 72 355 2.6 6.1 0.00 0.00 0.00 33 1012.6
20260507225359 69 307 5.2 7.0 0.00 0.00 0.00 35 1012.8
20260507224855 69 339 1.7 4.3 0.00 0.00 0.00 34 1012.8
20260507224352 69 315 2.6 4.3 0.00 0.00 0.00 35 1013.0
20260507223848 71 292 5.2 7.8 0.00 0.00 0.00 33 1012.9
20260507223344 72 55 1.7 3.5 0.00 0.00 0.00 33 1013.1
20260507222841 70 341 2.6 5.2 0.00 0.00 0.00 35 1013.0
20260507222338 69 290 2.6 5.2 0.00 0.00 0.00 36 1013.1
20260507221835 70 252 2.6 7.8 0.00 0.00 0.00 36 1013.0
20260507221331 70 273 6.1 8.7 0.00 0.00 0.00 34 1012.9
20260507220827 70 304 2.6 5.2 0.00 0.00 0.00 34 1013.2
20260507220326 71 285 1.7 7.0 0.00 0.00 0.00 34 1013.1
20260507215822 71 350 5.2 7.8 0.00 0.00 0.00 34 1013.0
20260507215319 71 357 1.7 6.1 0.00 0.00 0.00 34 1013.2
20260507214816 70 277 2.6 7.0 0.00 0.00 0.00 36 1013.5
20260507214314 70 273 2.6 8.7 0.00 0.00 0.00 36 1013.4
20260507213808 71 277 5.2 6.1 0.00 0.00 0.00 36 1013.5
20260507213306 72 275 6.1 8.7 0.00 0.00 0.00 35 1013.4
20260507212802 70 288 5.2 8.7 0.00 0.00 0.00 35 1013.6
20260507212258 71 354 3.5 5.2 0.00 0.00 0.00 36 1013.6
20260507211755 69 326 4.3 6.1 0.00 0.00 0.00 38 1013.8
20260507211251 69 340 4.3 5.2 0.00 0.00 0.00 36 1013.7
20260507210748 70 319 1.7 6.1 0.00 0.00 0.00 36 1013.9
20260507210245 71 311 1.7 7.8 0.00 0.00 0.00 38 1013.5
20260507205742 69 283 1.7 5.2 0.00 0.00 0.00 38 1013.9
20260507205239 68 298 4.3 4.3 0.00 0.00 0.00 38 1013.8
20260507204735 68 278 1.7 4.3 0.00 0.00 0.00 38 1013.7
20260507204233 69 340 2.6 5.2 0.00 0.00 0.00 38 1014.0
20260507203730 70 300 2.6 8.7 0.00 0.00 0.00 38 1014.1
20260507203227 68 231 3.5 6.1 0.00 0.00 0.00 38 1013.9
20260507202724 69 247 3.5 4.3 0.00 0.00 0.00 40 1014.1
20260507202220 69 328 2.6 4.3 0.00 0.00 0.00 39 1014.0
20260507201714 68 232 4.3 4.3 0.00 0.00 0.00 40 1013.9
20260507201212 68 327 4.3 5.2 0.00 0.00 0.00 40 1014.2
20260507200708 70 252 3.5 8.7 0.00 0.00 0.00 39 1014.1
20260507200204 70 289 5.2 6.1 0.00 0.00 0.00 38 1014.1
20260507195701 70 20 2.6 3.5 0.00 0.00 0.00 40 1014.0
20260507195158 69 20 5.2 6.1 0.00 0.00 0.00 40 1014.2
20260507194655 69 240 4.3 7.8 0.00 0.00 0.00 41 1014.1
20260507194150 69 344 3.5 5.2 0.00 0.00 0.00 40 1014.4
20260507193647 67 6 2.6 6.1 0.00 0.00 0.00 41 1014.2
20260507193145 67 257 5.2 5.2 0.00 0.00 0.00 41 1014.2
20260507192641 67 283 3.5 9.6 0.00 0.00 0.00 39 1014.2
20260507192138 68 329 4.3 7.0 0.00 0.00 0.00 40 1014.2
20260507191633 68 353 0.0 2.6 0.00 0.00 0.00 40 1014.4
20260507191130 69 244 3.5 6.1 0.00 0.00 0.00 42 1014.2
20260507190628 69 278 2.6 2.6 0.00 0.00 0.00 41 1014.1
20260507190127 67 270 0.0 4.3 0.00 0.00 0.00 46 1014.2
20260507185624 66 200 0.9 7.0 0.00 0.00 0.00 42 1014.5
20260507185120 66 185 0.0 4.3 0.00 0.00 0.00 42 1014.5
20260507184619 67 242 4.3 4.3 0.00 0.00 0.00 41 1014.5
20260507184116 67 98 0.9 4.3 0.00 0.00 0.00 42 1014.5
20260507183612 65 329 4.3 4.3 0.00 0.00 0.00 43 1014.4
20260507183109 66 279 1.7 4.3 0.00 0.00 0.00 45 1014.4
20260507182605 66 290 2.6 3.5 0.00 0.00 0.00 43 1014.4
20260507182101 65 259 2.6 6.1 0.00 0.00 0.00 47 1014.5
20260507181559 66 68 1.7 4.3 0.00 0.00 0.00 44 1014.6
20260507181055 64 78 2.6 4.3 0.00 0.00 0.00 45 1014.7
20260507180551 64 53 1.7 2.6 0.00 0.00 0.00 44 1014.9
20260507180048 64 276 4.3 5.2 0.00 0.00 0.00 45 1015.0
20260507175544 65 294 2.6 7.0 0.00 0.00 0.00 44 1014.7
20260507175042 64 261 1.7 5.2 0.00 0.00 0.00 45 1014.7
20260507174539 64 274 4.3 6.1 0.00 0.00 0.00 45 1014.8
20260507174037 64 250 3.5 7.0 0.00 0.00 0.00 46 1014.9
20260507173533 64 358 3.5 7.0 0.00 0.00 0.00 46 1014.8
20260507173031 64 300 2.6 7.0 0.00 0.00 0.00 46 1014.9
20260507172526 63 289 2.6 7.0 0.00 0.00 0.00 45 1015.4
20260507172024 63 320 4.3 4.3 0.00 0.00 0.00 47 1015.2
20260507171519 64 358 3.5 5.2 0.00 0.00 0.00 45 1015.1
20260507171017 63 284 5.2 8.7 0.00 0.00 0.00 46 1015.4
20260507170513 62 321 2.6 5.2 0.00 0.00 0.00 47 1015.5
20260507170010 63 285 3.5 7.0 0.00 0.00 0.00 46 1015.4
20260507165506 63 326 2.6 5.2 0.00 0.00 0.00 48 1015.4
20260507165003 62 306 2.6 5.2 0.00 0.00 0.00 48 1015.4
20260507164459 62 256 4.3 7.0 0.00 0.00 0.00 48 1015.4
20260507163955 62 288 5.2 7.8 0.00 0.00 0.00 48 1015.4
20260507163453 62 337 4.3 7.8 0.00 0.00 0.00 48 1015.1
20260507162950 63 300 2.6 5.2 0.00 0.00 0.00 45 1015.1
20260507162445 63 321 2.6 5.2 0.00 0.00 0.00 49 1014.9
20260507161943 62 286 0.0 4.3 0.00 0.00 0.00 50 1015.4
20260507161439 61 301 2.6 11.3 0.00 0.00 0.00 49 1015.2
20260507160936 63 309 6.1 7.8 0.00 0.00 0.00 47 1015.4
20260507160432 62 274 7.0 7.0 0.00 0.00 0.00 48 1015.1
20260507155927 61 270 1.7 6.1 0.00 0.00 0.00 48 1015.2
20260507155424 61 298 3.5 4.3 0.00 0.00 0.00 47 1015.4
20260507154921 62 282 2.6 6.1 0.00 0.00 0.00 47 1015.2
20260507154418 61 277 4.3 6.1 0.00 0.00 0.00 47 1015.2
20260507153915 61 279 5.2 6.1 0.00 0.00 0.00 47 1015.1
20260507153411 61 294 2.6 7.8 0.00 0.00 0.00 46 1015.0
20260507152908 62 265 3.5 4.3 0.00 0.00 0.00 47 1015.5
20260507152404 61 287 3.5 6.1 0.00 0.00 0.00 46 1015.2
20260507151900 61 301 3.5 5.2 0.00 0.00 0.00 45 1015.6
20260507151356 60 278 1.7 6.1 0.00 0.00 0.00 47 1015.4
20260507150854 60 278 3.5 6.1 0.00 0.00 0.00 47 1015.4
20260507150350 60 236 1.7 3.5 0.00 0.00 0.00 49 1015.5
20260507145846 59 270 0.0 1.7 0.00 0.00 0.00 51 1015.5
20260507145343 59 239 1.7 2.6 0.00 0.00 0.00 51 1015.6
20260507144840 59 220 1.7 3.5 0.00 0.00 0.00 50 1015.5
20260507144337 59 232 1.7 2.6 0.00 0.00 0.00 51 1015.2
20260507143834 59 241 2.6 2.6 0.00 0.00 0.00 51 1015.1
20260507143331 59 264 0.0 1.7 0.00 0.00 0.00 52 1015.0
20260507142827 59 258 0.0 2.6 0.00 0.00 0.00 51 1015.1
20260507142324 59 232 0.0 2.6 0.00 0.00 0.00 50 1015.0
20260507141820 60 174 0.9 1.7 0.00 0.00 0.00 49 1015.1
20260507141317 59 180 0.0 1.7 0.00 0.00 0.00 53 1015.0
20260507140814 59 277 2.6 2.6 0.00 0.00 0.00 49 1014.8
20260507140310 59 257 3.5 3.5 0.00 0.00 0.00 50 1014.9
20260507135808 59 188 0.0 2.6 0.00 0.00 0.00 51 1014.8
20260507135306 59 196 1.7 4.3 0.00 0.00 0.00 50 1014.8
20260507134802 58 229 2.6 6.1 0.00 0.00 0.00 52 1014.7
20260507134258 57 283 0.9 7.0 0.00 0.00 0.00 53 1014.5
20260507133754 57 239 4.3 6.1 0.00 0.00 0.00 52 1014.6
20260507133250 57 199 2.6 6.1 0.00 0.00 0.00 53 1014.6
20260507132748 57 283 0.9 3.5 0.00 0.00 0.00 53 1014.7
20260507132245 57 254 4.3 7.0 0.00 0.00 0.00 54 1014.4
20260507131742 56 212 0.0 4.3 0.00 0.00 0.00 56 1014.5
20260507131239 55 240 1.7 4.3 0.00 0.00 0.00 59 1014.1
20260507130735 52 110 1.7 2.6 0.00 0.00 0.00 66 1014.4
20260507130233 50 93 3.5 4.3 0.00 0.00 0.00 70 1014.1
20260507125732 49 103 3.5 3.5 0.00 0.00 0.00 72 1014.4
20260507125229 49 104 2.6 4.3 0.00 0.00 0.00 71 1014.5
20260507124726 49 119 3.5 3.5 0.00 0.00 0.00 73 1014.4
20260507124222 49 110 2.6 4.3 0.00 0.00 0.00 72 1014.2
20260507123721 49 113 2.6 3.5 0.00 0.00 0.00 72 1014.2
20260507123218 49 114 3.5 3.5 0.00 0.00 0.00 71 1014.1
20260507122713 50 105 5.2 6.1 0.00 0.00 0.00 68 1014.1
20260507122209 52 102 4.3 5.2 0.00 0.00 0.00 65 1013.9
20260507121705 49 64 5.2 5.2 0.00 0.00 0.00 69 1014.0
20260507121201 50 108 3.5 7.0 0.00 0.00 0.00 69 1014.1
20260507120657 50 94 4.3 5.2 0.00 0.00 0.00 69 1013.9
20260507120154 49 96 4.3 5.2 0.00 0.00 0.00 70 1013.7
20260507115651 49 107 3.5 4.3 0.00 0.00 0.00 71 1013.9
20260507115146 49 110 4.3 6.1 0.00 0.00 0.00 70 1013.8
20260507114643 50 78 2.6 2.6 0.00 0.00 0.00 67 1013.7
20260507114140 50 96 0.0 3.5 0.00 0.00 0.00 68 1013.8
20260507113637 51 108 4.3 6.1 0.00 0.00 0.00 66 1013.8
20260507113133 51 117 5.2 5.2 0.00 0.00 0.00 65 1013.8
20260507112632 50 98 1.7 4.3 0.00 0.00 0.00 67 1013.8
20260507112128 51 99 3.5 3.5 0.00 0.00 0.00 66 1013.8
20260507111626 50 120 0.9 2.6 0.00 0.00 0.00 68 1013.6
20260507111122 51 99 2.6 3.5 0.00 0.00 0.00 67 1013.6
20260507110618 51 97 2.6 4.3 0.00 0.00 0.00 68 1013.5
20260507110115 52 109 3.5 3.5 0.00 0.00 0.00 64 1013.2
20260507105612 51 108 2.6 2.6 0.00 0.00 0.00 67 1013.5
20260507105108 51 117 1.7 2.6 0.00 0.00 0.00 67 1013.6
20260507104606 52 120 2.6 4.3 0.00 0.00 0.00 65 1013.1
20260507104102 54 59 4.3 5.2 0.00 0.00 0.00 62 1013.4
20260507103558 57 345 1.7 3.5 0.00 0.00 0.00 56 1013.0
20260507103055 57 85 1.7 2.6 0.00 0.00 0.00 53 1013.0
20260507102551 57 208 4.3 4.3 0.00 0.00 0.00 52 1013.0
20260507102047 54 246 1.7 5.2 0.00 0.00 0.00 60 1012.8
20260507101543 54 103 4.3 4.3 0.00 0.00 0.00 63 1013.1
20260507101039 55 96 2.6 4.3 0.00 0.00 0.00 61 1013.1
20260507100537 56 28 1.7 2.6 0.00 0.00 0.00 57 1013.0
20260507100035 57 117 0.0 1.7 0.00 0.00 0.00 57 1013.2
20260507095533 59 195 0.0 3.5 0.00 0.00 0.00 54 1013.0
20260507095029 59 197 1.7 5.2 0.00 0.00 0.00 53 1012.8
20260507094525 60 278 3.5 5.2 0.00 0.00 0.00 52 1012.7
20260507094022 59 212 2.6 2.6 0.00 0.00 0.00 54 1012.9
20260507093520 59 236 4.3 7.0 0.00 0.00 0.00 54 1012.6
20260507093018 58 154 1.7 3.5 0.00 0.00 0.00 57 1012.6
20260507092514 56 254 1.7 4.3 0.00 0.00 0.00 60 1012.6
20260507092011 55 104 2.6 2.6 0.00 0.00 0.00 63 1012.8
20260507091508 54 90 0.0 2.6 0.00 0.00 0.00 64 1012.7
20260507091003 53 101 2.6 3.5 0.00 0.00 0.00 66 1012.8
20260507090459 54 90 2.6 4.3 0.00 0.00 0.00 65 1012.7
20260507085956 54 106 3.5 4.3 0.00 0.00 0.00 65 1012.8
20260507085454 54 103 3.5 3.5 0.00 0.00 0.00 65 1012.7
20260507084950 54 107 2.6 2.6 0.00 0.00 0.00 64 1012.7
20260507084447 55 100 3.5 3.5 0.00 0.00 0.00 62 1012.7
20260507083944 55 100 1.7 2.6 0.00 0.00 0.00 62 1012.8
20260507083440 56 109 2.6 2.6 0.00 0.00 0.00 60 1012.9
20260507082937 56 101 2.6 3.5 0.00 0.00 0.00 62 1013.2
20260507082433 56 90 2.6 3.5 0.00 0.00 0.00 61 1012.9
20260507081930 58 103 2.6 2.6 0.00 0.00 0.00 58 1012.6
20260507081426 59 187 0.9 1.7 0.00 0.00 0.00 57 1012.7
20260507080923 59 180 0.0 2.6 0.00 0.00 0.00 54 1012.8
20260507080419 60 270 0.0 2.6 0.00 0.00 0.00 54 1012.6
20260507075914 61 246 0.0 4.3 0.00 0.00 0.00 52 1012.4
20260507075411 61 258 0.0 2.6 0.00 0.00 0.00 52 1012.5
20260507074908 61 262 0.9 7.0 0.00 0.00 0.00 51 1012.5
20260507074404 60 251 0.0 0.9 0.00 0.00 0.00 53 1012.4
20260507073902 61 301 2.6 4.3 0.00 0.00 0.00 52 1012.5
20260507073358 60 194 2.6 4.3 0.00 0.00 0.00 54 1012.3
20260507072855 59 180 0.0 2.6 0.00 0.00 0.00 56 1012.5
20260507072353 58 185 0.9 2.6 0.00 0.00 0.00 58 1012.8
20260507071850 59 135 1.7 1.7 0.00 0.00 0.00 55 1012.5
20260507071348 59 148 1.7 2.6 0.00 0.00 0.00 55 1012.6
20260507070843 60 97 0.9 2.6 0.00 0.00 0.00 54 1012.6
20260507070341 61 97 0.9 1.7 0.00 0.00 0.00 52 1012.7
20260507065838 62 90 0.0 2.6 0.00 0.00 0.00 50 1012.7
20260507065334 63 252 2.6 4.3 0.00 0.00 0.00 49 1012.5
20260507064831 63 287 1.7 4.3 0.00 0.00 0.00 48 1012.7
20260507064330 64 283 5.2 7.8 0.00 0.00 0.00 47 1012.4
20260507063827 64 286 1.7 7.8 0.00 0.00 0.00 47 1012.5
20260507063324 64 213 3.5 8.7 0.00 0.00 0.00 47 1012.8
20260507062821 64 228 3.5 7.8 0.00 0.00 0.00 47 1012.5
20260507062318 64 270 2.6 6.1 0.00 0.00 0.00 46 1012.6
20260507061816 64 303 3.5 6.1 0.00 0.00 0.00 45 1012.5
20260507061314 64 270 1.7 4.3 0.00 0.00 0.00 46 1012.6
20260507060812 64 278 2.6 6.1 0.00 0.00 0.00 45 1012.6
20260507060308 64 253 2.6 9.6 0.00 0.00 0.00 45 1012.6
20260507055805 64 227 2.6 4.3 0.00 0.00 0.00 44 1012.7
20260507055300 64 228 3.5 10.4 0.00 0.00 0.00 43 1012.7
20260507054756 64 264 2.6 7.8 0.00 0.00 0.00 43 1012.7
20260507054253 64 188 0.0 2.6 0.00 0.00 0.00 43 1012.6
20260507053750 64 240 0.9 4.3 0.00 0.00 0.00 43 1012.6
20260507053248 64 253 2.6 2.6 0.00 0.00 0.00 42 1012.7
20260507052747 65 285 2.6 7.0 0.00 0.00 0.00 41 1012.5
20260507052243 65 291 5.2 8.7 0.00 0.00 0.00 41 1012.6
20260507051741 64 235 3.5 6.1 0.00 0.00 0.00 41 1012.3
20260507051237 63 157 0.9 2.6 0.00 0.00 0.00 43 1012.5
20260507050734 63 261 0.0 2.6 0.00 0.00 0.00 42 1012.6
20260507050231 64 248 2.6 3.5 0.00 0.00 0.00 41 1012.3
20260507045728 64 270 0.0 3.5 0.00 0.00 0.00 40 1012.4
20260507045224 64 251 0.9 5.2 0.00 0.00 0.00 41 1012.4
20260507044722 64 255 4.3 4.3 0.00 0.00 0.00 41 1012.8
20260507044218 65 180 1.7 1.7 0.00 0.00 0.00 40 1012.4
20260507043714 64 258 0.0 4.3 0.00 0.00 0.00 40 1012.5
20260507043211 64 261 0.0 7.0 0.00 0.00 0.00 40 1012.5
20260507042708 64 157 1.7 5.2 0.00 0.00 0.00 41 1012.6
20260507042202 63 261 0.0 4.3 0.00 0.00 0.00 43 1012.7
20260507041700 64 262 0.0 0.9 0.00 0.00 0.00 42 1012.5
20260507041156 65 288 1.7 5.2 0.00 0.00 0.00 39 1012.6
20260507040653 64 274 2.6 4.3 0.00 0.00 0.00 41 1012.5
20260507040150 65 273 3.5 5.2 0.00 0.00 0.00 40 1012.7
20260507035646 65 272 4.3 5.2 0.00 0.00 0.00 39 1012.5
20260507035142 65 251 0.9 4.3 0.00 0.00 0.00 41 1012.5
20260507034639 64 287 1.7 4.3 0.00 0.00 0.00 43 1012.3
20260507034136 63 18 0.0 2.6 0.00 0.00 0.00 47 1012.5
20260507033635 61 126 0.9 2.6 0.00 0.00 0.00 50 1012.4
20260507033131 61 41 1.7 4.3 0.00 0.00 0.00 49 1012.1
20260507032629 62 76 2.6 3.5 0.00 0.00 0.00 54 1012.3
20260507032124 63 106 2.6 6.1 0.00 0.00 0.00 52 1012.0
20260507031622 60 101 2.6 3.5 0.00 0.00 0.00 58 1011.9
20260507031118 60 105 2.6 5.2 0.00 0.00 0.00 58 1011.8
20260507030615 60 107 0.0 3.5 0.00 0.00 0.00 60 1011.7
20260507030113 60 90 1.7 2.6 0.00 0.00 0.00 57 1011.8
20260507025610 60 125 1.7 2.6 0.00 0.00 0.00 57 1011.6
20260507025107 61 65 1.7 3.5 0.00 0.00 0.00 57 1011.7
20260507024605 60 108 4.3 8.7 0.00 0.00 0.00 58 1011.5
20260507024102 61 94 4.3 9.6 0.00 0.00 0.00 57 1011.5
20260507023557 61 110 5.2 7.0 0.00 0.00 0.00 56 1011.7
20260507023055 62 88 5.2 6.1 0.00 0.00 0.00 55 1011.7
20260507022551 63 95 5.2 7.0 0.00 0.00 0.00 51 1011.5
20260507022046 63 120 6.1 7.0 0.00 0.00 0.00 49 1011.8
20260507021543 63 109 7.0 7.8 0.00 0.00 0.00 49 1011.6
20260507021040 63 135 3.5 8.7 0.00 0.00 0.00 51 1011.5
20260507020538 63 134 3.5 8.7 0.00 0.00 0.00 53 1011.7
20260507020034 62 108 4.3 6.1 0.00 0.00 0.00 54 1011.7
20260507015532 63 113 5.2 5.2 0.00 0.00 0.00 55 1011.5
20260507015029 63 123 4.3 4.3 0.00 0.00 0.00 56 1011.6
20260507014526 63 108 3.5 8.7 0.00 0.00 0.00 55 1011.7
20260507014021 64 70 2.6 7.0 0.00 0.00 0.00 50 1011.6
20260507013518 64 129 4.3 7.8 0.00 0.00 0.00 51 1011.6
20260507013016 64 106 2.6 5.2 0.00 0.00 0.00 54 1011.8
20260507012513 63 113 4.3 7.8 0.00 0.00 0.00 56 1011.7
20260507012009 63 145 2.6 6.1 0.00 0.00 0.00 60 1011.8
20260507011506 63 103 1.7 4.3 0.00 0.00 0.00 62 1011.6
20260507011002 63 92 4.3 4.3 0.00 0.00 0.00 62 1011.6
20260507010456 64 75 1.7 4.3 0.00 0.00 0.00 60 1011.9
20260507005953 64 111 2.6 2.6 0.00 0.00 0.00 60 1011.8
20260507005451 65 101 1.7 1.7 0.00 0.00 0.00 55 1012.0
20260507004947 65 90 0.0 0.0 0.00 0.00 0.00 57 1011.8